{"data":{"norad_id":62590,"epoch":"2026-05-25T00:23:34.319616Z","epoch_age_seconds":84312,"freshness":"FRESH","line1":"1 62590U 25008D   26145.01636944  .00193847  00000+0  14758-2 0  9996","line2":"2 62590  43.0036  25.6255 0002387 258.5596 101.5004 15.70894325 79231","mean_motion":15.70894325,"eccentricity":0.0002387,"inclination_deg":43.0036,"raan_deg":25.6255,"arg_perigee_deg":258.5596,"mean_anomaly_deg":101.5004,"bstar":0.0014758,"rev_number":7923,"period_min":91.667528304299,"perigee_km":354.73227541519,"apogee_km":357.94731463714,"semimajor_km":6734.4767950262,"source":"CELESTRAK","updated_at":"2026-05-25T13:38:19.733566Z"}}